1507546800.17,22214,11.88,73144.8,5.53,3.33,3.49,0,*74
1507546801.42,22215,11.88,73140.3,5.57,3.33,3.49,0,*71
1507546802.64,22216,11.88,73138.0,5.61,3.29,3.45,0,*70
1507546803.87,22217,11.88,73142.8,5.61,3.29,3.37,0,*74
1507546805.07,22218,11.88,73142.5,5.59,3.25,3.37,0,*7C
1507546806.3,22219,11.88,73144.5,5.59,3.33,3.41,0,*7B
1507546807.53,22220,11.88,73144.0,5.61,3.29,3.45,0,*75
1507546808.73,22221,11.88,73144.5,5.63,2.95,3.03,0,*72
1507546809.94,22222,11.88,73142.8,5.63,3.15,3.29,0,*70
1507546811.14,22223,11.88,73142.5,5.63,3.25,3.41,0,*7C
1507546812.35,22224,11.88,73144.5,5.67,3.29,3.45,0,*77
1507546813.57,22225,11.88,73144.8,5.69,3.25,3.33,0,*75
1507546814.82,22226,11.88,73148.3,5.69,3.11,3.23,0,*70
1507546816.07,22227,11.88,73144.5,5.69,3.33,3.45,0,*71
1507546817.29,22228,11.88,73142.0,5.71,3.33,3.45,0,*77
1507546818.54,22229,11.88,73140.0,5.73,3.37,3.49,0,*7C
1507546819.76,22230,11.88,73142.5,5.71,3.03,3.23,0,*7D
1507546821.01,22231,11.88,73142.5,5.73,3.37,3.49,0,*75
1507546822.26,22232,11.88,73140.8,5.73,3.37,3.41,0,*7E
1507546823.49,22233,11.88,73146.3,5.73,3.29,3.41,0,*70
1507546824.74,22234,11.88,73144.3,5.73,2.85,3.03,0,*76
1507546825.94,22235,11.88,73142.8,5.75,3.25,3.37,0,*7D
1507546827.14,22236,11.88,73146.8,5.75,3.25,3.37,0,*7E
1507546828.34,22237,11.88,73146.3,5.75,3.25,3.41,0,*7E
1507546829.57,22238,11.88,73140.5,5.77,3.29,3.45,0,*7B
1507546830.8,22239,11.88,73148.0,5.77,3.29,3.45,0,*7A
1507546832.03,22240,11.88,73142.5,5.77,3.29,3.41,0,*70
1507546833.25,22241,11.88,73144.3,5.77,3.29,3.33,0,*74
1507546834.5,22242,11.88,73144.3,5.77,3.19,3.33,0,*74
1507546835.73,22243,11.88,73146.0,5.77,3.29,3.41,0,*73
1507546836.96,22244,11.88,73144.5,5.79,3.15,3.45,0,*71
1507546838.19,22245,11.88,73146.0,5.81,3.15,3.25,0,*71
1507546839.45,22246,11.88,73144.8,5.81,3.23,3.33,0,*70
1507546840.7,22247,11.88,73146.0,5.81,3.23,3.33,0,*71
1507546841.93,22248,11.88,73140.5,5.81,3.25,3.45,0,*79
1507546843.17,22249,11.88,73142.8,5.81,3.23,3.37,0,*7B
1507546844.4,22250,11.88,73142.5,5.81,3.23,3.25,0,*70
1507546845.63,22251,11.88,73140.3,5.81,3.15,3.25,0,*74
1507546846.85,22252,11.88,73142.5,5.83,3.19,3.37,0,*7A
1507546848.1,22253,11.88,73140.0,5.85,3.19,3.41,0,*7C
1507546849.33,22254,11.88,73144.0,5.85,3.29,3.37,0,*79
1507546850.53,22255,11.88,73144.8,5.83,3.25,3.41,0,*73
1507546851.74,22256,11.88,73142.0,5.83,3.15,3.25,0,*71
1507546852.97,22257,11.88,73142.3,5.85,3.15,3.25,0,*76
1507546854.22,22258,11.88,73140.8,5.85,3.19,3.37,0,*76
1507546855.46,22259,11.88,73142.8,5.91,3.15,3.33,0,*7A
1507546856.7,22260,11.88,73144.8,5.91,3.19,3.33,0,*7C
1507546857.96,22261,11.88,73146.8,5.89,3.11,3.41,0,*79
1507546859.2,22262,11.88,73144.3,5.91,3.23,3.37,0,*73
1507546860.47,22263,11.88,73146.8,5.89,3.23,3.41,0,*7A
1507546861.73,22264,11.88,73144.0,5.89,3.23,3.33,0,*78
1507546862.95,22265,11.88,73144.5,5.91,3.25,3.33,0,*76
1507546864.16,22266,11.88,73140.5,5.91,3.25,3.45,0,*74
1507546865.4,22267,11.88,73142.5,5.91,3.15,3.37,0,*73
1507546866.67,22268,11.88,73140.5,5.93,3.23,3.37,0,*7B
1507546867.91,22269,11.88,73138.8,5.93,3.25,3.37,0,*7C
1507546869.15,22270,11.88,73138.3,5.93,3.25,3.37,0,*74
1507546870.41,22271,11.88,73134.3,5.93,3.23,3.37,0,*73
1507546871.65,22272,11.88,73130.3,5.95,3.19,3.41,0,*7E
1507546872.84,22273,11.88,73130.0,5.95,3.25,3.29,0,*7E
1507546874.11,22274,11.88,73124.3,5.93,3.15,3.33,0,*77
1507546875.33,22275,11.88,73124.0,5.95,3.29,3.41,0,*7A
1507546876.57,22276,11.88,73116.8,5.93,3.25,3.37,0,*72
1507546877.8,22277,11.88,73118.0,5.95,3.19,3.37,0,*7A
1507546879.07,22278,11.88,73118.0,5.97,3.19,3.41,0,*76
1507546880.3,22279,11.88,73110.5,5.97,3.25,3.49,0,*70
1507546881.53,22280,11.88,73108.3,5.97,3.19,3.25,0,*73
1507546882.77,22281,11.88,73106.3,5.99,3.07,3.19,0,*7C
1507546883.98,22282,11.88,73100.5,5.99,2.99,3.19,0,*79
1507546885.21,22283,11.88,73106.0,5.99,3.19,3.23,0,*78
1507546886.44,22284,11.88,73104.3,5.99,3.07,3.19,0,*79
1507546887.68,22285,11.88,73106.3,5.97,2.95,3.03,0,*77
1507546888.92,22286,11.88,73108.5,5.97,2.31,2.43,0,*7F
1507546890.18,22287,11.88,73112.0,5.97,2.43,2.43,0,*7B
1507546891.44,22288,11.88,73114.5,5.97,2.43,2.43,0,*74
1507546892.7,22289,11.88,73118.3,5.97,2.21,2.25,0,*71
1507546893.93,22290,11.88,73114.3,5.95,1.97,1.97,0,*7F
1507546895.19,22291,11.88,73118.5,5.93,1.47,1.29,0,*70
1507546896.45,22292,11.88,73120.5,5.89,1.25,1.13,0,*75
1507546897.71,22293,11.88,73124.5,5.89,1.55,1.63,0,*74
1507546898.95,22294,11.88,73124.3,5.85,1.93,1.97,0,*7E
1507546900.19,22295,11.88,73126.0,5.85,2.55,2.59,0,*77
1507546901.42,22296,11.88,73126.0,5.83,2.77,2.81,0,*77
1507546902.62,22297,11.88,73126.3,5.83,2.95,3.07,0,*75
1507546903.87,22298,11.88,73128.3,5.85,3.19,3.37,0,*7A
1507546905.1,22299,11.88,73124.8,5.85,3.25,3.41,0,*75
1507546906.32,22300,11.88,73130.3,5.85,2.81,2.95,0,*73
1507546907.56,22301,11.88,73132.0,5.85,3.07,3.19,0,*78
1507546908.78,22302,11.88,73130.8,5.85,2.77,2.91,0,*7C
1507546910.01,22303,11.88,73132.3,5.89,2.85,2.95,0,*78
1507546911.26,22304,11.88,73132.8,5.89,2.89,3.07,0,*79
1507546912.48,22305,11.88,73132.3,5.91,2.91,3.03,0,*7C
1507546913.71,22306,11.88,73138.3,5.89,2.85,2.95,0,*7D
1507546914.94,22307,11.88,73136.5,5.89,2.89,2.99,0,*7C
1507546916.19,22308,11.88,73136.0,5.89,2.85,3.07,0,*79
1507546917.42,22309,11.88,73136.3,5.89,2.89,2.99,0,*72
1507546918.66,22310,11.88,73136.0,5.91,3.03,3.11,0,*71
1507546919.91,22311,11.88,73134.3,5.89,2.73,2.81,0,*77
1507546921.15,22312,11.88,73138.0,5.89,2.51,2.61,0,*7A
1507546922.39,22313,11.88,73136.0,5.89,2.59,2.61,0,*73
1507546923.63,22314,11.88,73140.3,5.91,2.39,2.39,0,*76
1507546924.9,22315,11.88,73138.8,5.89,2.39,2.51,0,*70
1507546926.16,22316,11.88,73140.8,5.89,2.47,2.59,0,*72
1507546927.4,22317,11.88,73142.5,5.85,2.47,2.47,0,*70
1507546928.63,22318,11.88,73146.0,5.83,2.47,2.55,0,*7A
1507546929.83,22319,11.88,73146.3,5.83,2.55,2.65,0,*7B
1507546931.06,22320,11.88,73148.3,5.83,2.85,3.03,0,*7D
1507546932.29,22321,11.88,73148.0,5.85,3.25,3.41,0,*77
1507546933.51,22322,11.88,73150.5,5.85,3.25,3.49,0,*7C
1507546934.74,22323,11.88,73150.3,5.85,3.25,3.41,0,*75
1507546936.0,22324,11.88,73154.8,5.89,3.23,3.45,0,*7C
1507546937.26,22325,11.88,73152.0,5.89,3.11,3.23,0,*7C
1507546938.52,22326,11.88,73156.5,5.89,3.07,3.23,0,*78
1507546939.77,22327,11.88,73156.0,5.91,3.15,3.33,0,*72
1507546941.01,22328,11.88,73156.3,5.91,3.23,3.33,0,*78
1507546942.24,22329,11.88,73152.0,5.91,3.19,3.37,0,*74
1507546943.5,22330,11.88,73150.0,5.93,3.23,3.37,0,*77
1507546944.77,22331,11.88,73152.0,5.93,3.23,3.37,0,*76
1507546945.99,22332,11.88,73150.3,5.95,3.29,3.41,0,*78
1507546947.24,22333,11.88,73148.0,5.93,3.15,3.25,0,*72
1507546948.5,22334,11.88,73146.8,5.93,3.11,3.23,0,*77
1507546949.77,22335,11.88,73142.8,5.93,3.11,3.33,0,*77
1507546951.04,22336,11.88,73142.8,5.93,3.15,3.33,0,*70
1507546952.25,22337,11.88,73140.3,5.97,3.25,3.29,0,*7D
1507546953.44,22338,11.88,73140.5,5.95,3.25,3.29,0,*70
1507546954.67,22339,11.88,73138.0,5.95,3.19,3.37,0,*71
1507546955.88,22340,11.88,73138.0,5.95,3.19,3.29,0,*70
1507546957.12,22341,11.88,73136.5,5.95,3.19,3.37,0,*7E
1507546958.33,22342,11.88,73134.8,5.95,3.19,3.29,0,*72
1507546959.58,22343,11.88,73134.5,5.97,3.19,3.37,0,*7E
1507546960.81,22344,11.88,73134.8,5.97,3.19,3.29,0,*76
1507546962.06,22345,11.88,73132.5,5.99,3.23,3.33,0,*7B
1507546963.32,22346,11.88,73132.3,5.97,3.19,3.41,0,*7A
1507546964.53,22347,11.88,73134.8,5.99,3.19,3.29,0,*7B
1507546965.77,22348,11.88,73130.8,5.99,3.23,3.41,0,*73
1507546966.98,22349,11.88,73130.8,5.99,3.19,3.29,0,*75
1507546968.19,22350,11.88,73124.8,5.99,2.99,3.11,0,*7F
1507546969.45,22351,11.88,73124.5,6.01,3.15,3.23,0,*78
1507546970.68,22352,11.88,73128.3,6.01,2.89,2.95,0,*73
1507546971.92,22353,11.88,73130.3,6.01,2.95,3.11,0,*72
1507546973.16,22354,11.88,73124.8,6.01,2.65,2.73,0,*7F
1507546974.34,22355,11.88,73124.8,5.99,2.27,2.27,0,*7B
1507546975.55,22356,11.88,73126.8,5.99,2.61,2.73,0,*7B
1507546976.79,22357,11.88,73124.5,5.99,2.39,2.47,0,*70
1507546978.05,22358,11.88,73126.0,5.97,2.55,2.59,0,*74
1507546979.31,22359,11.88,73120.8,5.97,2.43,2.47,0,*7D
1507546980.57,22360,11.88,73120.3,5.97,2.43,2.43,0,*73
1507546981.83,22361,11.88,73122.0,5.97,2.21,2.25,0,*76
1507546983.06,22362,11.88,73120.8,5.95,2.43,2.47,0,*77
1507546984.3,22363,11.88,73122.5,5.95,2.47,2.55,0,*71
1507546985.54,22364,11.88,73122.5,5.95,2.01,2.05,0,*71
1507546986.77,22365,11.88,73120.3,5.93,1.83,2.01,0,*7B
1507546988.03,22366,11.88,73124.8,5.93,1.89,1.93,0,*7A
1507546989.24,22367,11.88,73120.8,5.93,1.83,1.83,0,*70
1507546990.5,22368,11.88,73120.0,5.89,1.55,1.63,0,*71
1507546991.71,22369,11.88,73122.8,5.89,1.75,1.75,0,*75
1507546992.96,22370,11.88,73122.5,5.89,1.97,1.97,0,*7D
1507546994.2,22371,11.88,73120.3,5.85,2.21,2.25,0,*74
1507546995.45,22372,11.88,73120.5,5.85,2.77,2.77,0,*73
1507546996.65,22373,11.88,73122.3,5.83,2.65,2.77,0,*77
1507546997.9,22374,11.88,73122.0,5.85,2.47,2.55,0,*76
1507546999.15,22375,11.88,73126.3,5.85,2.77,2.81,0,*7D
1507547000.4,22376,11.88,73120.8,5.85,2.81,2.81,0,*77
1507547001.62,22377,11.88,73124.3,5.85,2.81,2.91,0,*77
1507547002.88,22378,11.88,73124.0,5.89,3.07,3.19,0,*7A
1507547004.12,22379,11.88,73126.3,5.91,2.89,3.07,0,*7A
1507547005.34,22380,11.88,73128.0,5.89,2.89,2.95,0,*7F
1507547006.6,22381,11.88,73130.3,5.89,2.81,2.85,0,*77
1507547007.86,22382,11.88,73124.3,5.89,2.73,2.81,0,*7D
1507547009.07,22383,11.88,73126.8,5.89,2.61,2.61,0,*71
1507547010.29,22384,11.88,73130.3,5.93,2.65,2.65,0,*7D
1507547011.51,22385,11.88,73128.5,5.89,2.85,2.95,0,*76
1507547012.75,22386,11.88,73128.5,5.89,2.95,3.07,0,*7E
1507547013.97,22387,11.88,73134.0,5.89,2.85,2.95,0,*74
1507547015.22,22388,11.88,73132.0,5.89,2.73,2.73,0,*7A
1507547016.46,22389,11.88,73130.3,5.91,2.73,2.77,0,*76
1507547017.66,22390,11.88,73134.0,5.91,2.85,2.99,0,*77
1507547018.88,22391,11.88,73134.3,5.91,2.91,3.11,0,*72
1507547020.11,22392,11.88,73132.3,5.91,3.11,3.23,0,*79
1507547021.36,22393,11.88,73132.8,5.91,3.11,3.15,0,*7D
1507547022.6,22394,11.88,73134.3,5.91,3.11,3.15,0,*7A
1507547023.81,22395,11.88,73134.8,5.91,2.99,3.11,0,*7E
1507547025.05,22396,11.88,73138.3,5.95,3.15,3.23,0,*7D
1507547026.32,22397,11.88,73138.5,5.93,3.03,3.15,0,*78
1507547027.56,22398,11.88,73138.8,5.93,2.91,3.03,0,*7A
1507547028.82,22399,11.88,73138.3,5.93,2.89,3.11,0,*71
1507547030.07,22400,11.88,73138.8,5.95,3.07,3.15,0,*73
1507547031.3,22401,11.88,73138.3,5.93,2.99,3.11,0,*76
1507547032.55,22402,11.88,73142.0,5.95,3.03,3.15,0,*75
1507547033.79,22403,11.88,73138.0,5.95,3.03,3.07,0,*77
1507547035.03,22404,11.88,73138.3,5.95,3.15,3.15,0,*74
1507547036.25,22405,11.88,73136.3,5.95,3.15,3.25,0,*76
1507547037.49,22406,11.88,73138.0,5.95,3.03,3.19,0,*7D
1507547038.71,22407,11.88,73136.0,5.95,3.15,3.25,0,*74
1507547039.95,22408,11.88,73138.8,5.97,3.15,3.29,0,*75
1507547041.19,22409,11.88,73138.8,5.99,3.19,3.41,0,*78
1507547042.42,22410,11.88,73136.8,5.99,3.19,3.33,0,*75
1507547043.67,22411,11.88,73140.3,5.97,3.15,3.25,0,*71
1507547044.91,22412,11.88,73140.3,5.97,3.15,3.25,0,*72
1507547046.13,22413,11.88,73138.5,5.99,3.07,3.29,0,*72
1507547047.34,22414,11.88,73134.8,5.99,3.11,3.29,0,*72
1507547048.55,22415,11.88,73140.8,5.99,3.19,3.29,0,*7B
1507547049.76,22416,11.88,73136.5,5.99,3.19,3.29,0,*78
1507547051.02,22417,11.88,73136.5,6.01,3.23,3.33,0,*79
1507547052.29,22418,11.88,73136.8,6.01,3.23,3.33,0,*76
1507547053.56,22419,11.88,73136.8,6.01,3.15,3.37,0,*76
1507547054.79,22420,11.88,73138.8,6.03,3.23,3.37,0,*7B
1507547056.04,22421,11.88,73142.0,6.03,3.15,3.33,0,*7B
1507547057.25,22422,11.88,73140.8,6.03,3.25,3.33,0,*7B
1507547058.47,22423,11.88,73138.5,6.03,3.25,3.33,0,*7A
1507547059.68,22424,11.88,73140.3,6.03,3.25,3.37,0,*79
1507547060.92,22425,11.88,73136.3,6.03,3.23,3.37,0,*7E
1507547062.17,22426,11.88,73136.8,6.03,3.15,3.33,0,*7C
1507547063.4,22427,11.88,73138.0,6.05,3.25,3.37,0,*7C
1507547064.63,22428,11.88,73142.3,6.05,3.19,3.29,0,*73
1507547065.87,22429,11.88,73138.0,6.05,3.25,3.37,0,*72
1507547067.09,22430,11.88,73138.8,6.07,3.29,3.33,0,*70
1507547068.35,22431,11.88,73136.8,6.05,3.19,3.45,0,*71
1507547069.56,22432,11.88,73140.5,6.07,3.29,3.45,0,*73
1507547070.78,22433,11.88,73136.8,6.05,3.25,3.29,0,*76
1507547072.01,22434,11.88,73142.8,6.05,3.25,3.37,0,*7E
1507547073.25,22435,11.88,73144.0,6.09,3.29,3.45,0,*7A
1507547074.49,22436,11.88,73140.8,6.09,3.29,3.45,0,*79
1507547075.75,22437,11.88,73146.8,6.13,3.33,3.49,0,*74
1507547077.0,22438,11.88,73142.8,6.09,3.29,3.41,0,*73
1507547078.23,22439,11.88,73142.0,6.13,3.25,3.45,0,*71
1507547079.47,22440,11.88,73144.8,6.09,3.29,3.33,0,*79
1507547080.72,22441,11.88,73140.3,6.09,3.29,3.41,0,*7D
1507547081.96,22442,11.88,73140.3,6.09,3.29,3.41,0,*7E
1507547083.21,22443,11.88,73136.5,6.13,3.33,3.37,0,*7E
1507547084.45,22444,11.88,73140.5,6.15,3.33,3.49,0,*76
1507547085.68,22445,11.88,73142.5,6.15,3.33,3.45,0,*7B
1507547086.94,22446,11.88,73140.8,6.17,3.37,3.49,0,*72
1507547088.17,22447,11.88,73140.5,6.15,3.33,3.49,0,*75
1507547089.43,22448,11.88,73140.5,6.17,3.37,3.53,0,*77
1507547090.69,22449,11.88,73140.0,6.17,3.41,3.49,0,*7C
1507547091.95,22450,11.88,73142.5,6.17,3.41,3.53,0,*7F
1507547093.22,22451,11.88,73140.0,6.17,3.41,3.41,0,*7D
1507547094.44,22452,11.88,73144.0,6.21,3.33,3.53,0,*7D
1507547095.66,22453,11.88,73138.3,6.19,3.29,3.41,0,*7F
1507547096.9,22454,11.88,73136.8,6.21,3.23,3.33,0,*7C
1507547098.13,22455,11.88,73142.5,6.19,3.15,3.19,0,*7B
1507547099.34,22456,11.88,73142.8,6.19,2.95,3.07,0,*7E
1507547100.58,22457,11.88,73140.3,6.19,2.81,2.85,0,*71
1507547101.79,22458,11.88,73140.3,6.19,2.61,2.51,0,*79
1507547103.04,22459,11.88,73142.3,6.19,2.47,2.51,0,*7C
1507547104.25,22460,11.88,73138.3,6.19,2.81,2.91,0,*70
1507547105.52,22461,11.88,73144.8,6.17,3.15,3.15,0,*7E
1507547106.75,22462,11.88,73142.0,6.17,3.25,3.37,0,*7E
1507547107.99,22463,11.88,73138.8,6.17,3.11,3.25,0,*7B
1507547109.22,22464,11.88,73140.3,6.17,3.25,3.37,0,*78
1507547110.49,22465,11.88,73142.3,6.17,3.37,3.49,0,*73
1507547111.75,22466,11.88,73144.3,6.17,3.37,3.49,0,*70
1507547112.96,22467,11.88,73144.5,6.19,3.41,3.55,0,*73
1507547114.16,22468,11.88,73142.5,6.21,3.53,3.63,0,*71
1507547115.38,22469,11.88,73144.3,6.21,3.53,3.67,0,*74
1507547116.59,22470,11.88,73146.3,6.21,3.45,3.63,0,*7F
1507547117.79,22471,11.88,73142.8,6.21,3.45,3.55,0,*7B
1507547118.99,22472,11.88,73142.3,6.21,3.45,3.55,0,*78
1507547120.25,22473,11.88,73144.5,6.23,3.49,3.67,0,*76
1507547121.48,22474,11.88,73146.8,6.23,3.55,3.67,0,*7C
1507547122.71,22475,11.88,73146.3,6.25,3.49,3.71,0,*71
1507547123.92,22476,11.88,73140.5,6.25,3.55,3.71,0,*7F
1507547125.18,22477,11.88,73144.3,6.27,3.53,3.75,0,*7E
1507547126.44,22478,11.88,73146.5,6.27,3.53,3.75,0,*71
1507547127.69,22479,11.88,73144.5,6.27,3.53,3.75,0,*70
1507547128.89,22480,11.88,73146.3,6.29,3.53,3.63,0,*7F
1507547130.09,22481,11.88,73144.3,6.29,3.53,3.63,0,*7E
1507547131.3,22482,11.88,73144.5,6.29,3.53,3.81,0,*71
1507547132.49,22483,11.88,73144.8,6.31,3.55,3.85,0,*7B
1507547133.72,22484,11.88,73146.0,6.31,3.55,3.67,0,*70
1507547134.95,22485,11.88,73142.8,6.35,3.55,3.67,0,*75
1507547136.2,22486,11.88,73144.8,6.31,3.53,3.67,0,*74
1507547137.43,22487,11.88,73146.8,6.31,3.29,3.53,0,*7F
1507547138.65,22488,11.88,73140.5,6.37,3.19,3.33,0,*73
1507547139.91,22489,11.88,73148.8,6.35,2.85,2.89,0,*74
1507547141.17,22490,11.88,73144.8,6.35,2.73,2.77,0,*74
1507547142.42,22491,11.88,73146.3,6.35,2.85,2.89,0,*7D
1507547143.69,22492,11.88,73144.8,6.31,3.07,3.07,0,*76
1507547144.95,22493,11.88,73144.3,6.31,3.07,3.15,0,*74
1507547146.21,22494,11.88,73146.3,6.31,3.03,3.07,0,*74
1507547147.45,22495,11.88,73144.3,6.31,2.95,3.03,0,*7F
1507547148.66,22496,11.88,73144.3,6.31,2.91,2.91,0,*72
1507547149.86,22497,11.88,73144.3,6.31,2.91,2.95,0,*77
1507547151.09,22498,11.88,73144.0,6.31,2.85,2.91,0,*79
1507547152.3,22499,11.88,73140.8,6.31,2.91,2.91,0,*7D
1507547153.56,22500,11.88,73146.8,6.31,3.03,3.15,0,*7B
1507547154.77,22501,11.88,73140.5,6.31,2.91,2.91,0,*7D
1507547155.98,22502,11.88,73146.0,6.29,2.59,2.65,0,*78
1507547157.17,22503,11.88,73140.5,6.29,2.65,2.65,0,*76
1507547158.4,22504,11.88,73142.5,6.29,2.77,2.77,0,*71
1507547159.61,22505,11.88,73142.8,6.29,2.55,2.65,0,*73
1507547160.87,22506,11.88,73144.8,6.27,2.59,2.69,0,*7E
1507547162.1,22507,11.88,73144.0,6.27,2.89,2.91,0,*75
1507547163.36,22508,11.88,73142.5,6.27,3.11,3.23,0,*72
1507547164.57,22509,11.88,73142.8,6.29,2.99,3.11,0,*7D
1507547165.77,22510,11.88,73140.5,6.31,2.91,2.91,0,*7D
1507547167.04,22511,11.88,73140.5,6.27,2.39,2.43,0,*76
1507547168.27,22512,11.88,73138.3,6.27,2.21,2.27,0,*7E
1507547169.53,22513,11.88,73140.5,6.27,2.21,2.17,0,*7C
1507547170.77,22514,11.88,73142.3,6.25,2.05,2.13,0,*7B
1507547172.03,22515,11.88,73142.0,6.23,2.01,2.05,0,*7F
1507547173.29,22516,11.88,73142.0,6.23,2.01,2.05,0,*7C
1507547174.53,22517,11.88,73142.8,6.21,1.85,1.85,0,*7B
1507547175.76,22518,11.88,73142.8,6.19,1.63,1.59,0,*76
1507547176.97,22519,11.88,73140.5,6.19,1.37,1.41,0,*7F
1507547178.2,22520,11.88,73136.8,6.15,1.17,1.17,0,*78
1507547179.44,22521,11.88,73138.8,6.15,1.17,1.09,0,*76
1507547180.66,22522,11.88,73140.0,6.09,1.05,1.05,0,*77
1507547181.89,22523,11.88,73140.8,6.09,1.01,0.95,0,*4A
1507547183.09,22524,11.88,73138.0,6.05,1.01,0.97,0,*43
1507547184.36,22525,11.88,73136.5,6.05,1.13,1.09,0,*77
1507547185.59,22526,11.88,73136.0,6.01,1.41,1.33,0,*7E
1507547186.8,22527,11.88,73136.8,6.01,1.79,1.79,0,*7A
1507547188.07,22528,11.88,73142.3,6.01,2.13,2.17,0,*71
1507547189.25,22529,11.88,73138.0,5.99,2.27,2.35,0,*75
1507547190.46,22530,11.88,73138.0,5.99,2.39,2.35,0,*72
1507547191.64,22531,11.88,73136.3,5.99,2.35,2.35,0,*7F
1507547192.85,22532,11.88,73134.5,5.99,2.35,2.47,0,*79
1507547194.07,22533,11.88,73136.5,5.99,2.59,2.61,0,*76
1507547195.29,22534,11.88,73136.8,5.99,2.69,2.61,0,*72
1507547196.47,22535,11.88,73138.0,5.99,2.27,2.35,0,*78
1507547197.7,22536,11.88,73138.0,5.99,1.93,1.97,0,*7C
1507547198.96,22537,11.88,73138.8,5.97,1.71,1.71,0,*77
1507547200.19,22538,11.88,73138.5,5.95,1.51,1.59,0,*72
1507547201.44,22539,11.88,73140.3,5.93,1.47,1.47,0,*7D
1507547202.69,22540,11.88,73142.0,5.93,1.59,1.59,0,*73
1507547203.95,22541,11.88,73140.3,5.93,1.59,1.55,0,*7E
1507547205.18,22542,11.88,73140.0,5.91,1.67,1.59,0,*7E
1507547206.41,22543,11.88,73142.0,5.91,1.67,1.71,0,*75
1507547207.64,22544,11.88,73144.3,5.89,1.75,1.67,0,*7F
1507547208.88,22545,11.88,73144.0,5.85,1.63,1.63,0,*71
1507547210.1,22546,11.88,73142.0,5.83,1.71,1.59,0,*7E
1507547211.34,22547,11.88,73140.5,5.85,1.63,1.71,0,*70
1507547212.57,22548,11.88,73142.0,5.83,1.51,1.51,0,*7A
1507547213.81,22549,11.88,73142.3,5.81,1.59,1.67,0,*74
1507547215.06,22550,11.88,73144.0,5.81,1.55,1.55,0,*71
1507547216.27,22551,11.88,73144.0,5.79,1.59,1.55,0,*7B
1507547217.49,22552,11.88,73144.8,5.79,1.71,1.71,0,*74
1507547218.69,22553,11.88,73144.5,5.79,1.79,1.71,0,*7D
1507547219.89,22554,11.88,73144.0,5.77,1.75,1.79,0,*70
1507547221.13,22555,11.88,73142.3,5.77,1.63,1.63,0,*7D
1507547222.35,22556,11.88,73144.8,5.75,1.51,1.47,0,*7B
1507547223.58,22557,11.88,73142.5,5.75,1.37,1.29,0,*72
1507547224.8,22558,11.88,73144.8,5.73,1.29,1.41,0,*7A
1507547226.02,22559,11.88,73140.8,5.71,1.43,1.47,0,*73
1507547227.24,22560,11.88,73144.0,5.71,1.25,1.25,0,*7D
1507547228.48,22561,11.88,73140.5,5.69,1.25,1.25,0,*75
1507547229.72,22562,11.88,73142.8,5.69,1.47,1.43,0,*72
1507547230.96,22563,11.88,73144.5,5.69,1.47,1.43,0,*73
1507547232.15,22564,11.88,73146.8,5.67,1.43,1.41,0,*7C
1507547233.37,22565,11.88,73148.3,5.63,1.47,1.47,0,*7B
1507547234.61,22566,11.88,73144.0,5.61,1.47,1.47,0,*7A
1507547235.85,22567,11.88,73144.5,5.61,1.47,1.47,0,*7B
1507547237.09,22568,11.88,73146.8,5.61,1.47,1.47,0,*74
1507547238.31,22569,11.88,73146.5,5.59,1.47,1.47,0,*7E
1507547239.53,22570,11.88,73150.8,5.59,1.47,1.43,0,*72
1507547240.75,22571,11.88,73144.5,5.59,1.55,1.47,0,*74
1507547241.99,22572,11.88,73146.0,5.57,1.47,1.47,0,*7A
1507547243.21,22573,11.88,73150.3,5.53,1.51,1.43,0,*7C
1507547244.43,22574,11.88,73144.8,5.53,1.43,1.51,0,*7B
1507547245.65,22575,11.88,73150.5,5.51,1.41,1.37,0,*7A
1507547246.88,22576,11.88,73148.8,5.51,1.41,1.37,0,*79
1507547248.1,22577,11.88,73148.3,5.51,1.47,1.41,0,*7F
1507547249.35,22578,11.88,73148.5,5.51,1.59,1.51,0,*7E
1507547250.56,22579,11.88,73152.8,5.49,1.47,1.43,0,*7A
1507547251.79,22580,11.88,73154.3,5.45,1.43,1.37,0,*77
1507547253.02,22581,11.88,73148.8,5.45,1.37,1.37,0,*75
1507547254.26,22582,11.88,73150.3,5.45,1.37,1.33,0,*72
1507547255.49,22583,11.88,73150.8,5.45,1.37,1.37,0,*77
1507547256.74,22584,11.88,73148.8,5.43,1.51,1.59,0,*7E
1507547257.99,22585,11.88,73150.0,5.43,2.01,2.05,0,*73
1507547259.23,22586,11.88,73152.8,5.43,2.51,2.61,0,*77
1507547260.46,22587,11.88,73150.8,5.43,2.51,2.61,0,*76
1507547261.66,22588,11.88,73146.3,5.45,2.99,3.11,0,*7D
1507547262.86,22589,11.88,73150.0,5.49,3.23,3.29,0,*7B
1507547264.09,22590,11.88,73150.5,5.49,3.11,3.23,0,*78
1507547265.31,22591,11.88,73150.3,5.49,3.15,3.23,0,*7D
1507547266.54,22592,11.88,73150.0,5.53,3.37,3.49,0,*79
1507547267.79,22593,11.88,73150.3,5.57,3.37,3.49,0,*7C
1507547269.03,22594,11.88,73146.8,5.57,3.37,3.53,0,*70
1507547270.26,22595,11.88,73144.3,5.59,3.41,3.53,0,*7E
1507547271.48,22596,11.88,73148.0,5.61,3.41,3.55,0,*70
1507547272.7,22597,11.88,73148.8,5.63,3.45,3.53,0,*71
1507547273.93,22598,11.88,73144.8,5.63,3.41,3.53,0,*7A
1507547275.12,22599,11.88,73144.3,5.67,3.49,3.63,0,*74
1507547276.34,22600,11.88,73140.8,5.69,3.45,3.63,0,*75
1507547277.6,22601,11.88,73142.3,5.69,3.15,3.33,0,*74
1507547278.8,22602,11.88,73140.5,5.71,3.25,3.49,0,*70
1507547280.03,22603,11.88,73146.8,5.71,3.15,3.33,0,*7F
1507547281.25,22604,11.88,73140.5,5.73,3.19,3.29,0,*7D
1507547282.47,22605,11.88,73142.8,5.75,3.19,3.37,0,*75
1507547283.67,22606,11.88,73138.8,5.75,3.29,3.45,0,*70
1507547284.91,22607,11.88,73138.0,5.77,3.33,3.53,0,*7F
1507547286.12,22608,11.88,73138.3,5.75,3.15,3.29,0,*7B
1507547287.34,22609,11.88,73140.0,5.77,3.19,3.29,0,*74
1507547288.54,22610,11.88,73140.3,5.79,2.91,3.03,0,*7B
1507547289.79,22611,11.88,73142.0,5.81,3.11,3.23,0,*76
1507547291.01,22612,11.88,73142.0,5.79,3.03,3.11,0,*70
1507547292.24,22613,11.88,73140.0,5.81,3.15,3.25,0,*76
1507547293.5,22614,11.88,73140.5,5.81,3.23,3.33,0,*73
1507547294.75,22615,11.88,73140.5,5.81,3.23,3.37,0,*76
1507547296.0,22616,11.88,73140.0,5.81,3.23,3.37,0,*75
1507547297.2,22617,11.88,73146.3,5.83,3.19,3.29,0,*70
1507547298.43,22618,11.88,73144.8,5.85,3.15,3.29,0,*75
1507547299.68,22619,11.88,73146.8,5.85,3.15,3.37,0,*7B
1507547300.93,22620,11.88,73150.8,5.85,3.07,3.19,0,*7E
1507547302.19,22621,11.88,73148.0,5.89,3.07,3.19,0,*73
1507547303.42,22622,11.88,73154.3,5.89,3.19,3.29,0,*7C
1507547304.65,22623,11.88,73154.3,5.89,3.29,3.41,0,*70
1507547305.9,22624,11.88,73152.0,5.91,3.23,3.45,0,*70
1507547307.11,22625,11.88,73158.3,5.91,3.25,3.37,0,*72
1507547308.35,22626,11.88,73154.8,5.91,3.23,3.45,0,*72
1507547309.59,22627,11.88,73158.0,5.91,3.15,3.37,0,*73
1507547310.81,22628,11.88,73154.5,5.95,3.25,3.49,0,*72
1507547312.08,22629,11.88,73156.0,5.93,3.15,3.45,0,*7A
1507547313.3,22630,11.88,73158.3,5.95,3.25,3.49,0,*7B
1507547314.54,22631,11.88,73156.8,5.95,3.19,3.41,0,*7D
1507547315.75,22632,11.88,73152.5,5.95,3.19,3.29,0,*70
1507547317.01,22633,11.88,73152.0,5.97,3.07,3.15,0,*73
1507547318.28,22634,11.88,73154.0,5.97,3.15,3.19,0,*7B
1507547319.52,22635,11.88,73148.0,5.97,3.15,3.25,0,*75
1507547320.76,22636,11.88,73150.8,5.97,3.15,3.25,0,*76
1507547322.0,22637,11.88,73144.5,5.97,3.15,3.25,0,*77
1507547323.24,22638,11.88,73146.8,5.99,3.19,3.33,0,*7D
1507547324.47,22639,11.88,73150.3,5.99,3.19,3.33,0,*7C
1507547325.68,22640,11.88,73150.5,5.99,3.19,3.29,0,*79
1507547326.89,22641,11.88,73146.0,5.99,2.95,3.11,0,*76
1507547328.1,22642,11.88,73148.5,5.99,2.85,2.95,0,*79
1507547329.36,22643,11.88,73150.5,6.01,2.77,2.77,0,*7B
1507547330.57,22644,11.88,73144.5,5.99,2.95,3.07,0,*74
1507547331.8,22645,11.88,73146.8,6.01,2.95,3.11,0,*70
1507547333.06,22646,11.88,73150.8,6.01,3.03,3.23,0,*7C
1507547334.29,22647,11.88,73148.3,6.03,3.11,3.23,0,*7C
1507547335.53,22648,11.88,73150.0,6.03,3.03,3.23,0,*70
1507547336.77,22649,11.88,73142.3,6.03,3.03,3.23,0,*71
1507547338.0,22650,11.88,73144.8,6.03,3.03,3.23,0,*79